sat.trackr.live / text

‹ back to catalog

STARLINK-36589

NORAD 67843 · 2026-033Y

PAYLOAD ACTIVE UNKNOWN

§ Identity

Operator
Country
US
Launch date
2026-02-16
Launch site
AFETR
Launch vehicle
Mass (kg)
RCS (m²)

Purposes: comms

External: N2YO · Heavens-Above · Gunter

§ Orbital elements

Epoch: 2026-09-19T06:43:45.175008Z

Period
94.27 min
Inclination
43.0001°
Eccentricity
0.0000877
Mean motion
15.27598102 rev/d
Perigee alt
482.4 km
Apogee alt
483.6 km
Semi-major
6,861.1 km
B*
6.5839e-4
RAAN
253.5384°
Arg perigee
270.9929°
Mean anomaly
89.0822°
Rev number
3,428

§ Raw data

STARLINK-365891 67843U 26033Y   26262.28038397  .00017909  00000+0  65839-3 0  99992 67843  43.0001 253.5384 0000877 270.9929  89.0822 15.27598102 34284

JSON: /api/v1/satellites/67843 · /tle

For live sub-satellite position, see the globe view (requires WebGL).

§ Visibility from observer

Set your observer location to see the next 7 days of passes ≥ 10°. The values pass through the URL so the page stays shareable.

No JS? Fill the form by hand. The geolocation button needs JavaScript.